Starlink 5935

operational
NORAD ID: 56453 Int'l Des: 2023-064 Owner: SPXS Country: US Constellation: starlink
LEOCIRCULAR

About Starlink 5935

Description loading...

Live Position

Loading 3D Globe...

Upcoming Passes

Altitude History

Altitude vs Time

uPlot chart will show altitude changes over time

Two-Line Element Set

1 56453U 23064F 26035.51374740 .00000300 00000-0 32926-4 0 9994
2 56453 69.9991 228.2224 0002649 268.8398 91.2457 14.98329741150276
Epoch: Feb 4, 2026 • Age: 12 hours

Current Status

Altitude 575.3 km
Velocity 7.57 km/s
Sub-Earth Point -6.92°S, 91.38°W
Launch Date May 10, 2023
Age 2.7 years
Type internet

Technical Details

Classification Payload
Mass 305.00 kg
Dry Mass 290.00 kg
Total Mass 305.00 kg
Length 0.20 m
Diameter 2.80 m
Span 9.00 m
Shape Box + pan
Manufacturer SPXS
Bus Type Starlink
Phase Status In Orbit
Owner/State SPXS/US

Large Constellations

Loading constellations...